Flag for Germany Weather past 2 weeks in Filderstadt, Baden-Württemberg, Germany

Now
46 °F

Overcast.


Feels Like: 46 °F
Forecast: 34 / 47 °F
Wind: 2 mph from South

Location: Stuttgart-Echterdingen

Current Time: Dec 23, 2014 at 12:13:51 AM

Latest Report: Dec 23, 2014 at 12:00 AM


Visibility: 38 mi

Pressure: 30.29 "Hg

Humidity: 68%

Dew point: 36 °F

Location of FilderstadtLocation

Historic Weather in Filderstadt — Graph

°F

Filderstadt temperature yesterday

Maximum temperature yesterday: 49 °F (at 7:00 PM)
Minimum temperature yesterday: 41 °F (at 6:00 AM)
Average temperature yesterday: 44 °F

Past Weeks' High & Low Weather Summary

 TemperatureHumidityPressure
High54 °F (Dec 18, 9:00 PM)98% (Dec 16, 6:00 AM)30.56 "Hg (Dec 16, 6:00 AM)
Low29 °F (Dec 9, 3:00 AM)55% (Dec 12, 1:00 PM)29.76 "Hg (Dec 12, 7:00 PM)
Average42 °F82%30.13 "Hg
* Reported Dec 7 11:00 PM — Dec 22 10:00 PM, Filderstadt, Weather by CustomWeather, © 2014

Note: Actual official high and low records may vary slightly from our data, if they occured in-between our weather recording intervals... More about our weather records

Advertising

Filderstadt weather history for previous 24 hours

 ConditionsComfort  
Time TempWeatherWind HumidityBarometerVisibility
10:00 PM
Dec 22
47 °FOvercast.2 mph67%30.29 "Hg37 mi
9:00 PM48 °FOvercast.5 mph66%30.29 "Hg37 mi
8:00 PM49 °FOvercast.6 mph63%30.28 "Hg37 mi
7:00 PM49 °FOvercast.3 mph66%30.29 "Hg37 mi
6:00 PM47 °FOvercast.6 mph71%30.31 "Hg37 mi
5:00 PM47 °FOvercast.5 mph69%30.28 "Hg37 mi
3:00 PM47 °FOvercast.7 mph66%30.28 "Hg37 mi
2:00 PM48 °FOvercast.5 mph66%30.32 "Hg37 mi
1:00 PM47 °FOvercast.5 mph68%30.34 "Hg37 mi
12:00 PM45 °FOvercast.2 mph71%30.37 "Hg37 mi
11:00 AM43 °FOvercast.6 mph73%30.38 "Hg37 mi
9:00 AM41 °FOvercast.5 mph75%30.40 "Hg37 mi
8:00 AM41 °FOvercast.5 mph74%30.40 "Hg37 mi
7:00 AM41 °FOvercast.5 mph74%30.39 "Hg37 mi
6:00 AM41 °FOvercast.5 mph74%30.39 "Hg37 mi
5:00 AM41 °FOvercast.3 mph73%30.42 "Hg37 mi
3:00 AM42 °FOvercast.5 mph71%30.44 "Hg34 mi
2:00 AM42 °FOvercast.5 mph72%30.44 "Hg31 mi
1:00 AM42 °FOvercast.5 mph73%30.44 "Hg34 mi
12:00 AM42 °FOvercast.3 mph74%30.45 "Hg3 mi
Weather by CustomWeather, © 2014

See weather overviewHow to use our weather pages